EW7168 Weather Reports


Display with metric or nautical units.
time (UTC)temp
F
wind
direction
speed
MPH
gust
MPH
rain 1hr
in
rain 24hr
in
rain mn
in
humidity
%
barometer
mb
20220517011605 75 203 1.0 5.0 0.00 0.00 0.00 26 1012.6
20220517010106 75 0 1.0 5.0 0.00 0.00 0.00 27 1012.7
20220517004603 75 175 2.0 6.0 0.00 0.00 0.00 26 1012.7
20220517003105 75 196 1.0 5.0 0.00 0.00 0.00 27 1013.1
20220517001603 75 141 1.0 6.0 0.00 0.00 0.00 27 1013.2
20220517000102 75 186 3.0 5.0 0.00 0.00 0.00 26 1013.4
20220516234602 75 155 2.0 6.0 0.00 0.00 0.00 26 1013.6
20220516233057 75 161 4.0 14.0 0.00 0.00 0.00 25 1013.5
20220516231600 75 167 3.0 11.0 0.00 0.00 0.00 24 1013.5
20220516230111 76 163 3.0 13.0 0.00 0.00 0.00 24 1013.6
20220516224601 76 115 2.0 8.0 0.00 0.00 0.00 23 1013.5
20220516223121 75 169 2.0 8.0 0.00 0.00 0.00 24 1013.6
20220516221558 75 161 5.0 8.0 0.00 0.00 0.00 24 1014.0
20220516220108 76 171 3.0 7.0 0.00 0.00 0.00 22 1014.2
20220516214608 77 211 5.0 14.0 0.00 0.00 0.00 21 1014.5
20220516213107 76 212 2.0 3.0 0.00 0.00 0.00 25 1014.6
20220516211613 77 196 0.0 9.0 0.00 0.00 0.00 21 1014.5
20220516210135 77 36 0.0 9.0 0.00 0.00 0.00 20 1014.6
20220516204615 77 292 7.0 31.0 0.00 0.00 0.00 19 1015.1
20220516203111 79 286 9.0 19.0 0.00 0.00 0.00 17 1014.5
20220516201607 80 213 3.0 8.0 0.00 0.00 0.00 14 1013.8
20220516200107 80 99 5.0 20.0 0.00 0.00 0.00 16 1013.9
20220516194607 80 351 0.0 17.0 0.00 0.00 0.00 15 1014.2
20220516193110 80 0 0.0 3.0 0.00 0.00 0.00 18 1014.4
20220516191608 81 360 0.0 3.0 0.00 0.00 0.00 20 1014.2
20220516190108 81 52 3.0 9.0 0.00 0.00 0.00 17 1014.4
20220516184605 82 61 2.0 9.0 0.00 0.00 0.00 20 1014.5
20220516183106 81 97 3.0 8.0 0.00 0.00 0.00 19 1014.7
20220516181609 80 15 1.0 6.0 0.00 0.00 0.00 21 1015.1
20220516180104 80 94 1.0 8.0 0.00 0.00 0.00 19 1015.2
20220516174603 80 128 1.0 5.0 0.00 0.00 0.00 21 1015.4
20220516173114 78 51 2.0 7.0 0.00 0.00 0.00 23 1015.8
20220516171602 77 95 1.0 4.0 0.00 0.00 0.00 26 1015.8
20220516170112 75 67 0.0 4.0 0.00 0.00 0.00 27 1016.0
20220516164605 75 254 2.0 4.0 0.00 0.00 0.00 28 1016.2
20220516163103 73 281 0.0 4.0 0.00 0.00 0.00 31 1016.5
20220516161642 71 71 1.0 3.0 0.00 0.00 0.00 34 1016.9
20220516160139 69 103 1.0 4.0 0.00 0.00 0.00 36 1017.1
20220516154606 67 132 1.0 4.0 0.00 0.00 0.00 39 1017.4
20220516153109 66 77 0.0 3.0 0.00 0.00 0.00 38 1017.6
20220516151604 65 0 1.0 4.0 0.00 0.00 0.00 40 1017.7
20220516150108 64 182 0.0 4.0 0.00 0.00 0.00 43 1017.9
20220516144611 62 134 0.0 2.0 0.00 0.00 0.00 44 1018.0
20220516143112 62 0 0.0 2.0 0.00 0.00 0.00 44 1017.9
20220516141606 61 0 1.0 3.0 0.00 0.00 0.00 47 1018.1
20220516140108 58 0 0.0 0.0 0.00 0.00 0.00 52 1018.2
20220516134609 57 0 0.0 0.0 0.00 0.00 0.00 57 1018.3
20220516133108 56 0 0.0 0.0 0.00 0.00 0.00 58 1018.6
20220516131611 55 0 0.0 0.0 0.00 0.00 0.00 59 1018.4
20220516130107 52 0 0.0 0.0 0.00 0.00 0.00 69 1018.5
20220516124609 50 0 0.0 0.0 0.00 0.00 0.00 72 1018.4
20220516123111 48 0 0.0 0.0 0.00 0.00 0.00 75 1018.6
20220516121607 47 0 0.0 0.0 0.00 0.00 0.00 76 1018.7
20220516120111 46 0 0.0 0.0 0.00 0.00 0.00 75 1018.5
20220516114606 46 0 0.0 0.0 0.00 0.00 0.00 76 1018.6
20220516113106 46 0 0.0 0.0 0.00 0.00 0.00 76 1018.5
20220516111609 46 0 0.0 0.0 0.00 0.00 0.00 76 1018.5
20220516110109 47 0 0.0 0.0 0.00 0.00 0.00 74 1018.4
20220516104605 47 0 0.0 0.0 0.00 0.00 0.00 74 1018.5
20220516103109 47 0 0.0 0.0 0.00 0.00 0.00 73 1018.7
20220516101607 47 0 0.0 0.0 0.00 0.00 0.00 72 1018.7
20220516100108 48 0 0.0 0.0 0.00 0.00 0.00 69 1018.6
20220516094604 48 0 0.0 0.0 0.00 0.00 0.00 68 1018.5
20220516093101 49 0 0.0 0.0 0.00 0.00 0.00 68 1018.5
20220516091601 50 0 0.0 0.0 0.00 0.00 0.00 64 1018.7
20220516090106 50 0 0.0 0.0 0.00 0.00 0.00 63 1018.8
20220516084608 51 0 0.0 0.0 0.00 0.00 0.00 63 1019.0
20220516083110 52 0 0.0 0.0 0.00 0.00 0.00 60 1019.2
20220516081603 53 0 0.0 1.0 0.00 0.00 0.00 58 1019.4
20220516080102 53 0 0.0 2.0 0.00 0.00 0.00 57 1019.7
20220516074603 53 0 0.0 0.0 0.00 0.00 0.00 57 1019.7
20220516073105 54 0 0.0 0.0 0.00 0.00 0.00 57 1019.9
20220516071607 55 0 0.0 0.0 0.00 0.00 0.00 56 1020.2
20220516070109 55 0 0.0 0.0 0.00 0.00 0.00 53 1020.3
20220516064605 56 0 0.0 0.0 0.00 0.00 0.00 52 1020.5
20220516063109 56 234 0.0 2.0 0.00 0.00 0.00 54 1020.7
20220516061610 56 0 0.0 0.0 0.00 0.00 0.00 52 1020.8
20220516060110 57 0 0.0 0.0 0.00 0.00 0.00 50 1020.9
20220516054611 58 0 0.0 0.0 0.00 0.00 0.00 49 1021.0
20220516053102 59 0 0.0 0.0 0.00 0.00 0.00 46 1021.3
20220516051558 60 0 0.0 0.0 0.00 0.00 0.00 46 1021.2
20220516050111 62 0 0.0 0.0 0.00 0.00 0.00 41 1021.3
20220516044605 62 0 0.0 3.0 0.00 0.00 0.00 39 1021.2
20220516043105 63 0 0.0 2.0 0.00 0.00 0.00 37 1021.3
20220516041559 64 0 0.0 4.0 0.00 0.00 0.00 36 1021.1
20220516040111 64 0 0.0 4.0 0.00 0.00 0.00 35 1021.2
20220516034607 65 0 1.0 4.0 0.00 0.00 0.00 35 1021.1
20220516033104 67 0 0.0 5.0 0.00 0.00 0.00 34 1020.8
20220516031602 68 0 0.0 10.0 0.00 0.00 0.00 32 1020.8
20220516030104 69 9 3.0 10.0 0.00 0.00 0.00 32 1020.6
20220516024605 69 36 4.0 9.0 0.00 0.00 0.00 31 1020.4
20220516023121 70 31 2.0 11.0 0.00 0.00 0.00 31 1020.4
20220516021603 71 49 2.0 9.0 0.00 0.00 0.00 30 1020.4
20220516020109 71 44 2.0 7.0 0.00 0.00 0.00 30 1020.3
20220516014603 72 75 3.0 9.0 0.00 0.00 0.00 29 1020.2
20220516013106 73 64 2.0 7.0 0.00 0.00 0.00 28 1020.1